• In Hungary
  • List of Countries
  • For 7 days
  • Water Temperature
  • Satellite Maps
  • Weather Map
  • News
  • Weather Widgets
  • user-avatar
    Login

    Hourly Weather Medvedickoe

    Today, 27 May, Sunday

    Time Temperature Precipitation Wind Pressure Humidity
    00:00 +12°C° 0 mm 2 mps 761 mmHg 72%
    01:00 +12°C° 0 mm 2 mps 761 mmHg 73%
    02:00 +11°C° 0 mm 3 mps 761 mmHg 74%
    03:00 +10°C° 0 mm 3 mps 761 mmHg 75%
    04:00 +11°C° 0 mm 3 mps 761 mmHg 74%
    05:00 +11°C° 0 mm 3 mps 760 mmHg 74%
    06:00 +12°C° 0 mm 4 mps 760 mmHg 73%
    07:00 +14°C° 0 mm 4 mps 760 mmHg 69%
    08:00 +15°C° 0 mm 4 mps 759 mmHg 66%
    09:00 +17°C° 0 mm 5 mps 759 mmHg 62%
    10:00 +20°C° 0 mm 5 mps 758 mmHg 58%
    11:00 +21°C° 0 mm 5 mps 758 mmHg 54%
    12:00 +23°C° 0 mm 5 mps 757 mmHg 50%
    13:00 +23°C° 0 mm 5 mps 757 mmHg 50%
    14:00 +25°C° 0 mm 5 mps 756 mmHg 50%
    15:00 +25°C° 0 mm 5 mps 756 mmHg 50%
    16:00 +23°C° 0.3 mm 5 mps 755 mmHg 57%
    17:00 +22°C° 0.3 mm 4 mps 755 mmHg 64%
    18:00 +21°C° 0.3 mm 4 mps 755 mmHg 71%
    19:00 +19°C° 0.2 mm 4 mps 755 mmHg 73%
    20:00 +18°C° 0.2 mm 3 mps 756 mmHg 76%
    21:00 +16°C° 0.2 mm 3 mps 756 mmHg 78%
    22:00 +13°C° 0 mm 3 mps 757 mmHg 74%
    23:00 +12°C° 0 mm 4 mps 757 mmHg 69%

    Tomorrow, 28 May, Monday

    Time Temperature Precipitation Wind Pressure Humidity
    00:00 +10°C° 0 mm 4 mps 758 mmHg 65%
    01:00 +9°C° 0 mm 3 mps 759 mmHg 62%
    02:00 +9°C° 0 mm 3 mps 760 mmHg 59%
    03:00 +8°C° 0 mm 3 mps 760 mmHg 56%
    04:00 +8°C° 0 mm 3 mps 761 mmHg 57%
    05:00 +8°C° 0 mm 3 mps 761 mmHg 57%
    06:00 +8°C° 0 mm 3 mps 762 mmHg 57%
    07:00 +9°C° 0 mm 3 mps 762 mmHg 54%
    08:00 +11°C° 0 mm 3 mps 763 mmHg 50%
    09:00 +12°C° 0 mm 3 mps 763 mmHg 46%
    10:00 +13°C° 0 mm 3 mps 763 mmHg 44%
    11:00 +14°C° 0 mm 3 mps 763 mmHg 42%
    12:00 +16°C° 0 mm 3 mps 763 mmHg 40%
    13:00 +16°C° 0 mm 3 mps 763 mmHg 39%
    14:00 +17°C° 0 mm 3 mps 763 mmHg 39%
    15:00 +17°C° 0 mm 3 mps 763 mmHg 38%
    16:00 +17°C° 0 mm 3 mps 763 mmHg 40%
    17:00 +17°C° 0 mm 3 mps 763 mmHg 42%
    18:00 +17°C° 0 mm 2 mps 763 mmHg 44%
    19:00 +15°C° 0 mm 2 mps 763 mmHg 50%
    20:00 +13°C° 0 mm 1 mps 763 mmHg 56%
    21:00 +10°C° 0 mm 0 mps 763 mmHg 62%
    22:00 +11°C° 0 mm 1 mps 763 mmHg 63%
    23:00 +10°C° 0 mm 1 mps 763 mmHg 63%

    Day after tomorrow, 29 May, Tuesday

    Time Temperature Precipitation Wind Pressure Humidity
    00:00 +10°C° 0 mm 1 mps 763 mmHg 64%
    01:00 +8°C° 0 mm 2 mps 763 mmHg 65%
    02:00 +8°C° 0 mm 2 mps 763 mmHg 67%
    03:00 +8°C° 0 mm 2 mps 763 mmHg 69%
    04:00 +8°C° 0 mm 2 mps 763 mmHg 68%
    05:00 +9°C° 0 mm 2 mps 763 mmHg 67%
    06:00 +10°C° 0 mm 3 mps 763 mmHg 67%
    07:00 +12°C° 0 mm 3 mps 762 mmHg 61%
    08:00 +14°C° 0 mm 3 mps 762 mmHg 56%
    09:00 +17°C° 0 mm 4 mps 762 mmHg 50%
    10:00 +18°C° 0 mm 4 mps 761 mmHg 47%
    11:00 +20°C° 0 mm 4 mps 760 mmHg 43%
    12:00 +21°C° 0 mm 4 mps 760 mmHg 40%
    13:00 +21°C° 0 mm 4 mps 759 mmHg 40%
    14:00 +22°C° 0 mm 4 mps 759 mmHg 40%
    15:00 +22°C° 0 mm 4 mps 758 mmHg 39%
    16:00 +22°C° 0 mm 4 mps 757 mmHg 43%
    17:00 +22°C° 0 mm 4 mps 756 mmHg 46%
    18:00 +22°C° 0 mm 3 mps 756 mmHg 49%
    19:00 +20°C° 0 mm 3 mps 755 mmHg 56%
    20:00 +18°C° 0 mm 3 mps 755 mmHg 63%
    21:00 +16°C° 0 mm 3 mps 754 mmHg 70%
    22:00 +14°C° 0 mm 3 mps 754 mmHg 71%
    23:00 +14°C° 0 mm 3 mps 753 mmHg 73%

    30 May, Wednesday

    Time Temperature Precipitation Wind Pressure Humidity
    00:00 +13°C° 0 mm 3 mps 753 mmHg 75%
    01:00 +13°C° 0 mm 3 mps 752 mmHg 76%
    02:00 +13°C° 0 mm 3 mps 752 mmHg 78%
    03:00 +13°C° 0 mm 3 mps 751 mmHg 80%
    04:00 +13°C° 0 mm 4 mps 751 mmHg 79%
    05:00 +14°C° 0 mm 4 mps 750 mmHg 78%
    06:00 +14°C° 0 mm 4 mps 750 mmHg 77%
    07:00 +16°C° 0 mm 5 mps 749 mmHg 72%
    08:00 +20°C° 0 mm 6 mps 749 mmHg 67%
    09:00 +22°C° 0 mm 6 mps 748 mmHg 62%
    10:00 +23°C° 0 mm 7 mps 747 mmHg 58%
    11:00 +24°C° 0 mm 7 mps 747 mmHg 54%
    12:00 +26°C° 0 mm 7 mps 746 mmHg 50%
    13:00 +26°C° 0 mm 7 mps 746 mmHg 49%
    14:00 +26°C° 0 mm 7 mps 745 mmHg 48%
    15:00 +27°C° 0 mm 6 mps 744 mmHg 47%
    16:00 +24°C° 0 mm 6 mps 744 mmHg 52%
    17:00 +23°C° 0 mm 5 mps 744 mmHg 56%
    18:00 +22°C° 0 mm 5 mps 744 mmHg 60%
    19:00 +20°C° 0.1 mm 5 mps 744 mmHg 59%
    20:00 +16°C° 0.1 mm 5 mps 745 mmHg 58%
    21:00 +14°C° 0.1 mm 5 mps 745 mmHg 57%
    22:00 +13°C° 0 mm 4 mps 746 mmHg 60%
    23:00 +11°C° 0 mm 3 mps 746 mmHg 63%

    31 May, Thursday

    Time Temperature Precipitation Wind Pressure Humidity
    00:00 +9°C° 0 mm 3 mps 747 mmHg 66%
    01:00 +8°C° 0 mm 3 mps 747 mmHg 68%
    02:00 +8°C° 0 mm 3 mps 748 mmHg 70%
    03:00 +7°C° 0 mm 3 mps 748 mmHg 71%
    04:00 +7°C° 0 mm 3 mps 748 mmHg 71%
    05:00 +6°C° 0 mm 4 mps 749 mmHg 71%
    06:00 +6°C° 0 mm 4 mps 749 mmHg 71%
    07:00 +7°C° 0 mm 4 mps 749 mmHg 66%
    08:00 +8°C° 0 mm 4 mps 750 mmHg 62%
    09:00 +10°C° 0 mm 4 mps 750 mmHg 57%
    10:00 +11°C° 0 mm 4 mps 750 mmHg 53%
    11:00 +12°C° 0 mm 4 mps 750 mmHg 49%
    12:00 +12°C° 0 mm 4 mps 750 mmHg 46%
    13:00 +13°C° 0 mm 4 mps 750 mmHg 43%
    14:00 +13°C° 0 mm 4 mps 750 mmHg 40%
    15:00 +14°C° 0 mm 4 mps 750 mmHg 38%
    16:00 +13°C° 0 mm 4 mps 750 mmHg 38%
    17:00 +13°C° 0 mm 4 mps 750 mmHg 39%
    18:00 +12°C° 0 mm 4 mps 750 mmHg 40%
    19:00 +11°C° 0 mm 3 mps 750 mmHg 46%
    20:00 +9°C° 0 mm 3 mps 750 mmHg 52%
    21:00 +7°C° 0 mm 2 mps 751 mmHg 58%
    22:00 +6°C° 0 mm 2 mps 751 mmHg 60%
    23:00 +5°C° 0 mm 2 mps 751 mmHg 61%

    1 June, Friday

    Time Temperature Precipitation Wind Pressure Humidity
    00:00 +5°C° 0 mm 2 mps 751 mmHg 62%
    01:00 +3°C° 0 mm 3 mps 752 mmHg 64%
    02:00 +3°C° 0 mm 3 mps 752 mmHg 65%
    03:00 +2°C° 0 mm 3 mps 752 mmHg 66%
    04:00 +3°C° 0 mm 3 mps 752 mmHg 65%
    05:00 +3°C° 0 mm 4 mps 752 mmHg 64%
    06:00 +4°C° 0 mm 4 mps 752 mmHg 62%
    07:00 +5°C° 0 mm 4 mps 752 mmHg 58%
    08:00 +6°C° 0 mm 4 mps 752 mmHg 53%
    09:00 +7°C° 0 mm 5 mps 753 mmHg 48%
    10:00 +8°C° 0 mm 5 mps 753 mmHg 47%
    11:00 +8°C° 0 mm 5 mps 753 mmHg 46%
    12:00 +8°C° 0 mm 5 mps 753 mmHg 46%
    13:00 +9°C° 0 mm 5 mps 753 mmHg 45%
    14:00 +9°C° 0 mm 5 mps 753 mmHg 45%
    15:00 +9°C° 0 mm 5 mps 753 mmHg 44%
    16:00 +9°C° 0 mm 5 mps 753 mmHg 45%
    17:00 +10°C° 0 mm 4 mps 753 mmHg 45%
    18:00 +10°C° 0 mm 4 mps 753 mmHg 46%
    19:00 +9°C° 0 mm 3 mps 753 mmHg 51%
    20:00 +7°C° 0 mm 2 mps 753 mmHg 56%
    21:00 +6°C° 0 mm 2 mps 753 mmHg 61%
    22:00 +5°C° 0 mm 2 mps 753 mmHg 61%
    23:00 +5°C° 0 mm 2 mps 753 mmHg 62%
    Show more